Regional Weather Roundup
Issued by NWS Sioux Falls, SD

Home | Current Version | Previous Version | Text Only | Print | Product List | Glossary On
Versions: 1 2 3 4 5 6 7 8 9 10 11 12 13 14 15 16 17 18 19 20 21 22 23 24 25 26 27 28 29 30 31 32 33 34 35 36 37 38 39 40 41 42 43 44 45 46 47 48 49 50
000
ASUS43 KFSD 050602
RWRFSD

WEATHER ROUNDUP FOR SE SOUTH DAKOTA/SW MINNESOTA/NW IOWA
NATIONAL WEATHER SERVICE SIOUX FALLS SD
1200 AM CST THU MAR 05 2015

NOTE: "FAIR" INDICATES FEW OR NO CLOUDS BELOW 12,000 FEET WITH NO
SIGNIFICANT WEATHER AND OR OBSTRUCTIONS TO VISIBILITY.


SDZ038>040-050-052>070-050700-
SOUTHEAST SOUTH DAKOTA

CITY           SKY/WX    TMP DP  RH WIND       PRES   REMARKS
CHAMBERLAIN    NOT AVBL
HURON          CLEAR     -9 -15  75 SW3       30.47R
6HR MIN TEMP: -10; 6HR MAX TEMP:   6;

MADISON        FAIR      -8 -11  84 W3        30.41S
MITCHELL       CLEAR     -2  -8  76 CALM      30.49R
6HR MIN TEMP:  -3; 6HR MAX TEMP:   9;

SIOUX FALLS    CLEAR     -6 -11  79 CALM      30.44F
6HR MIN TEMP:  -6; 6HR MAX TEMP:   5;

WINNER         FAIR       0 -11  59 S5        30.38S WCI -10
YANKTON        CLEAR      1  -6  71 NW5       30.48S WCI  -8
$$

MNZ071-072-080-081-089-090-097-098-050700-
SOUTHWEST MINNESOTA

CITY           SKY/WX    TMP DP  RH WIND       PRES   REMARKS
FAIRMONT       CLEAR      0  -9  65 NW10      30.40S WCI -17
JACKSON        CLEAR     -4 -11  71 NW7       30.40F WCI -18
LUVERNE        CLEAR     -4  -9  77 NW3       30.44F
MARSHALL       CLEAR     -6 -15  65 W9        30.45F WCI -22
6HR MIN TEMP:  -8; 6HR MAX TEMP:   3;

MONTEVIDEO     FAIR      -6 -11  77 NW5       30.48R WCI -17
PIPESTONE      PTCLDY    -9 -13  84 W3        30.40S
REDWOOD FALLS  CLEAR     -4 -11  72 W9        30.46F WCI -20
TRACY          CLEAR     -4 -12  70 W7        30.44F WCI -18
WINDOM         CLEAR     -6 -11  77 W8        30.41F WCI -21
WORTHINGTON    CLEAR     -6 -11  77 NW8       30.42S WCI -21
$$

IAZ001>003-012>014-020>022-031-032-NEZ013-014-SDZ071-050700-
NORTHWEST IOWA

CITY           SKY/WX    TMP DP  RH WIND       PRES   REMARKS
DENISON        CLEAR      1  -8  66 CALM      30.44F
ESTHERVILLE    CLEAR     -3  -9  75 NW9       30.41S WCI -19
SIOUX CITY     CLEAR      1  -6  72 W3        30.48S
6HR MIN TEMP:   1; 6HR MAX TEMP:  16;

SPENCER        CLEAR     -5 -11  75 NW7       30.43S WCI -19
6HR MIN TEMP:  -5; 6HR MAX TEMP:   9;

$$

ABBREVIATIONS USED IN REMARKS
   TC - TEMPERATURE IN CELSIUS
  WCI - WIND CHILL INDEX
   HX - HEAT INDEX
  VSB - VISIBILITY



USA.gov is the U.S. government's official web portal to all federal, state and local government web resources and services.